Weather History for Jefferson, GA

Change the Weather History Date:

Thursday, May 2, 2013

  Actual Average (KGVL) Record (KGVL)
Temperature  
Mean Temperature 60 °F 65 °F  
Max Temperature 64 °F 75 °F 89 °F (1942)
Min Temperature 57 °F 54 °F 37 °F (1963)
Degree Days  
Heating Degree Days 4 3  
Month to date heating degree days 6  
Since 1 July heating degree days 3031  
Cooling Degree Days 0 2  
Month to date cooling degree days 4  
Year to date cooling degree days 43  
Growing Degree Days 10 (Base 50)    
Moisture  
Dew Point 53 °F    
Average Humidity 80    
Maximum Humidity 94    
Minimum Humidity 59    
Precipitation  
Precipitation 0.00 in 0.12 in 1.82 in (1985)
Month to date precipitation 0.24  
Year to date precipitation 19.12  
Sea Level Pressure  
Sea Level Pressure 30.19 in    
Wind  
Wind Speed 5 mph (East)    
Max Wind Speed 8 mph    
Max Gust Speed 21 mph    
Visibility 9 miles    
Events      
T = Trace of Precipitation, MM = Missing Value Source: NWS Daily Summary

Daily Weather History Graph

Daily Weather History Graph

Search for Another Location

Airport:

Trip Planner

Search our weather history database for the weather conditions in past years. The results will help you decide how hot, cold, wet, or windy it might be!

Date:

Astronomy

May. 02, 2013 Rise Set
Actual Time 6:43 AM EDT 8:19 PM EDT
Civil Twilight 6:16 AM EDT 8:46 PM EDT
Nautical Twilight 5:44 AM EDT 9:18 PM EDT
Astronomical Twilight 5:10 AM EDT 9:52 PM EDT
Moon 2:10 AM EDT (5/2) 1:26 PM EDT (5/2)
Length of Visible Light 14h 29m
Length of Day
13h 35m
Waning Gibbous, 48% of the Moon is Illuminated
May 2
Waning Gibbous
May 9
New
May 18
First Quarter
May 25
Full
May 31
Last Quarter

Hourly Weather History & Observations

Time (EDT) Temp. Dew Point Humidity Pressure Visibility Wind Dir Wind Speed Gust Speed Precip Events Conditions
12:15 AM 59.0 °F 46.4 °F 63% 30.22 in 10.0 mi East 5.8 mph - N/A   Overcast
12:35 AM 59.0 °F 48.2 °F 67% 30.22 in 10.0 mi ENE 4.6 mph - N/A   Mostly Cloudy
12:55 AM 59.0 °F 50.0 °F 72% 30.22 in 10.0 mi ENE 3.5 mph - N/A   Clear
1:15 AM 59.0 °F 50.0 °F 72% 30.22 in 10.0 mi East 4.6 mph - N/A   Clear
1:35 AM 59.0 °F 51.8 °F 77% 30.21 in 10.0 mi East 3.5 mph - N/A   Clear
1:55 AM 59.0 °F 51.8 °F 77% 30.21 in 10.0 mi East 5.8 mph - N/A   Scattered Clouds
2:15 AM 59.0 °F 51.8 °F 77% 30.21 in 10.0 mi East 5.8 mph - N/A   Scattered Clouds
2:35 AM 59.0 °F 50.0 °F 72% 30.20 in 10.0 mi East 4.6 mph - N/A   Mostly Cloudy
2:55 AM 59.0 °F 51.8 °F 77% 30.20 in 10.0 mi East 3.5 mph - N/A   Overcast
3:15 AM 59.0 °F 50.0 °F 72% 30.19 in 10.0 mi Calm Calm - N/A   Overcast
3:35 AM 59.0 °F 50.0 °F 72% 30.18 in 10.0 mi ENE 3.5 mph - N/A   Overcast
3:55 AM 59.0 °F 50.0 °F 72% 30.18 in 10.0 mi ENE 3.5 mph - N/A   Overcast
4:15 AM 59.0 °F 50.0 °F 72% 30.18 in 10.0 mi East 3.5 mph - N/A   Overcast
4:35 AM 59.0 °F 50.0 °F 72% 30.18 in 10.0 mi East 5.8 mph - N/A   Overcast
4:55 AM 59.0 °F 50.0 °F 72% 30.18 in 10.0 mi East 5.8 mph - N/A   Overcast
5:15 AM 59.0 °F 51.8 °F 77% 30.18 in 10.0 mi ENE 6.9 mph - N/A   Overcast
5:35 AM 59.0 °F 51.8 °F 77% 30.18 in 10.0 mi East 3.5 mph - N/A   Overcast
5:55 AM 59.0 °F 53.6 °F 82% 30.18 in 10.0 mi NE 5.8 mph - N/A   Overcast
6:15 AM 59.0 °F 53.6 °F 82% 30.18 in 10.0 mi East 5.8 mph - N/A   Overcast
6:35 AM 59.0 °F 53.6 °F 82% 30.18 in 10.0 mi East 6.9 mph - N/A   Overcast
6:55 AM 59.0 °F 53.6 °F 82% 30.19 in 10.0 mi East 4.6 mph - N/A   Overcast
7:15 AM 59.0 °F 53.6 °F 82% 30.19 in 10.0 mi East 5.8 mph - N/A   Overcast
7:35 AM 59.0 °F 53.6 °F 82% 30.19 in 10.0 mi East 5.8 mph - N/A   Overcast
7:55 AM 59.0 °F 53.6 °F 82% 30.20 in 10.0 mi East 3.5 mph - N/A   Overcast
8:15 AM 59.0 °F 55.4 °F 88% 30.20 in 5.0 mi East 4.6 mph - N/A   Overcast
8:35 AM 57.2 °F 55.4 °F 94% 30.21 in 4.0 mi East 4.6 mph - N/A   Overcast
9:15 AM 57.2 °F 55.4 °F 94% 30.22 in 3.0 mi East 5.8 mph - N/A   Overcast
9:35 AM 57.2 °F 55.4 °F 94% 30.22 in 2.5 mi ENE 4.6 mph - N/A   Overcast
9:55 AM 57.2 °F 55.4 °F 94% 30.22 in 3.0 mi East 4.6 mph - N/A   Overcast
10:15 AM 59.0 °F 55.4 °F 88% 30.22 in 3.0 mi ENE 5.8 mph - N/A   Overcast
10:35 AM 59.0 °F 55.4 °F 88% 30.22 in 4.0 mi East 4.6 mph - N/A   Overcast
10:55 AM 59.0 °F 55.4 °F 88% 30.22 in 3.0 mi East 5.8 mph - N/A   Overcast
11:15 AM 59.0 °F 55.4 °F 88% 30.23 in 2.0 mi East 4.6 mph - N/A   Overcast
11:35 AM 59.0 °F 57.2 °F 94% 30.23 in 2.0 mi East 4.6 mph - N/A   Overcast
11:55 AM 59.0 °F 57.2 °F 94% 30.23 in 2.5 mi East 5.8 mph - N/A   Overcast
12:35 PM 59.0 °F 57.2 °F 94% 30.23 in 3.0 mi East 4.6 mph - N/A   Overcast
12:55 PM 59.0 °F 57.2 °F 94% 30.23 in 10.0 mi East 4.6 mph - N/A   Overcast
1:15 PM 60.8 °F 55.4 °F 82% 30.23 in 10.0 mi East 6.9 mph - N/A   Overcast
1:35 PM 60.8 °F 55.4 °F 82% 30.22 in 10.0 mi East 5.8 mph - N/A   Overcast
1:55 PM 60.8 °F 55.4 °F 82% 30.22 in 10.0 mi East 5.8 mph - N/A   Overcast
2:15 PM 60.8 °F 55.4 °F 82% 30.21 in 10.0 mi East 5.8 mph - N/A   Overcast
2:35 PM 60.8 °F 55.4 °F 82% 30.21 in 10.0 mi East 6.9 mph - N/A   Overcast
2:55 PM 62.6 °F 55.4 °F 77% 30.21 in 10.0 mi East 5.8 mph - N/A   Overcast
3:15 PM 62.6 °F 55.4 °F 77% 30.21 in 10.0 mi East 4.6 mph - N/A   Overcast
3:55 PM 62.6 °F 53.6 °F 72% 30.20 in 10.0 mi East 8.1 mph - N/A   Overcast
4:15 PM 62.6 °F 55.4 °F 77% 30.19 in 10.0 mi East 5.8 mph - N/A   Overcast
4:35 PM 62.6 °F 55.4 °F 77% 30.18 in 10.0 mi ENE 6.9 mph - N/A   Overcast
4:55 PM 62.6 °F 55.4 °F 77% 30.17 in 10.0 mi ENE 5.8 mph - N/A   Overcast
5:15 PM 62.6 °F 53.6 °F 72% 30.17 in 10.0 mi ENE 6.9 mph 16.1 mph N/A   Overcast
5:35 PM 62.6 °F 53.6 °F 72% 30.16 in 10.0 mi East 4.6 mph - N/A   Overcast
5:55 PM 64.4 °F 50.0 °F 59% 30.16 in 10.0 mi ENE 4.6 mph - N/A   Overcast
6:15 PM 62.6 °F 50.0 °F 63% 30.16 in 10.0 mi East 8.1 mph 20.7 mph N/A   Overcast
6:35 PM 60.8 °F 50.0 °F 68% 30.16 in 10.0 mi East 8.1 mph - N/A   Overcast
6:55 PM 60.8 °F 51.8 °F 72% 30.16 in 10.0 mi East 8.1 mph - N/A   Overcast
7:15 PM 60.8 °F 55.4 °F 82% 30.17 in 4.0 mi East 6.9 mph - N/A   Overcast
7:35 PM 59.0 °F 55.4 °F 88% 30.17 in 7.0 mi East 4.6 mph - N/A   Overcast
7:55 PM 59.0 °F 55.4 °F 88% 30.17 in 7.0 mi ENE 4.6 mph - N/A   Overcast
8:15 PM 59.0 °F 55.4 °F 88% 30.17 in 10.0 mi ENE 5.8 mph - N/A   Overcast
8:35 PM 59.0 °F 55.4 °F 88% 30.17 in 10.0 mi East 3.5 mph - N/A   Overcast
8:55 PM 60.8 °F 53.6 °F 77% 30.18 in 10.0 mi East 4.6 mph - N/A   Overcast
9:15 PM 59.0 °F 53.6 °F 82% 30.18 in 10.0 mi East 4.6 mph - N/A   Mostly Cloudy
9:35 PM 60.8 °F 53.6 °F 77% 30.19 in 10.0 mi East 4.6 mph - N/A   Overcast
9:55 PM 59.0 °F 53.6 °F 82% 30.18 in 10.0 mi ENE 4.6 mph - N/A   Overcast
10:15 PM 59.0 °F 53.6 °F 82% 30.18 in 10.0 mi East 4.6 mph - N/A   Overcast
10:35 PM 59.0 °F 53.6 °F 82% 30.18 in 10.0 mi ENE 5.8 mph - N/A   Overcast
10:55 PM 59.0 °F 53.6 °F 82% 30.18 in 10.0 mi ENE 4.6 mph - N/A   Overcast
11:15 PM 59.0 °F 53.6 °F 82% 30.18 in 10.0 mi ENE 8.1 mph - N/A   Overcast
11:35 PM 59.0 °F 53.6 °F 82% 30.18 in 10.0 mi East 4.6 mph - N/A   Overcast
11:55 PM 60.8 °F 53.6 °F 77% 30.18 in 10.0 mi East 4.6 mph - N/A   Overcast